Observer details:
473 Remanzacco.  Observers L. Donato, V. Gonano, E. Guido, G. Sostero.  0.45-m
    f/4.4 Newtonian reflector + CCD.
474 Mount John Observatory, Lake Tekapo.  Observer A. C. Gilmore.  1.0-m f/7.7
    reflector + CCD.
595 Farra d'Isonzo.  Observers L. Bittesini, G. Lombardi, E. Pettarin,
    F. Piani.  Measurer G. Lombardi.  0.40-m f/4.5 reflector + CCD.
649 Powell Observatory, Louisburg.  Observers R. Fredrick, R. Trentman.
    0.75-m Newtonian reflector + CCD.
651 Grasslands Observatory, Tucson.  Observer J. E. McGaha.  0.62-m f/5.1
    Newtonian reflector + CCD.
673 Table Mountain Observatory, Wrightwood.  Observers J. Young, H. Rhoades.
    0.61-m f/16 Cassegrain + CCD.
734 Farpoint Observatory.  Observer G. Hug.  0.7-m reflector + CCD.
850 Cordell-Lorenz Observatory, Sewanee.  Observer D. T. Durig.  0.30-m f/3.3
    Schmidt-Cassegrain + 765x510 CCD, 0.30-m f/9.7 Schmidt-Cassegrain + 1Kx1K
    CCD.
A17 Guidestar Observatory, Weinheim.  Observers M. Emmerich, S. Melchert.
    0.36-m f/6 Schmidt-Cassegrain + CCD.
A21 Irmtraut.  Observer J. J. Mueller.  0.31-m f/4.8 reflector + CCD.
A24 New Millennium Observatory, Mozzate.  Observer E. Cozzi.  0.36-m f/7.6
    Schmidt-Cassegrain + CCD.
B03 Alter Satzberg, Vienna.  Observer M. Pietschnig.  0.35-m f/7
    Schmidt-Cassegrain + CCD.
G96 Mt. Lemmon Survey.  Observers A. D. Grauer, C. A. Nall.  Measurers
    E. C. Beshore, A. Boattini, G. J. Garradd, A. R. Gibbs, A. D. Grauer,
    R. E. Hill, R. A. Kowalski, S. M. Larson, R. H. McNaught.  1.5-m reflector
    + CCD.
J95 Great Shefford.  Observer P. Birtwhistle.  0.40-m f/6.0 Schmidt-Cassegrain
    + CCD.

Orbital elements:
2007 JE40                                                Earth MOID = 0.3265 AU
Epoch 2007 Apr. 10.0 TT = JDT 2454200.5                 MPC
M 327.57200              (2000.0)            P               Q
n   0.37240452     Peri.   67.57352     +0.15831640     +0.97054537
a   1.9133427      Node   213.20197     -0.98308364     +0.13778221
e   0.3690357      Incl.   19.36768     -0.09210032     +0.19763033
P   2.65           H   20.2           G   0.15           U   6
Residuals in seconds of arc
070515 G96  0.2-  0.3-    070516 734  0.1-  0.8+    070517 474  1.6+  2.0+
070515 G96  0.4-  0.3-    070516 734  0.1+  0.4+    070517 A17  0.1+  0.3-
070515 G96  0.1-  0.0     070516 734  0.2-  0.2-    070517 A17  0.1-  0.4-
070515 G96  0.0   0.0     070516 673  0.1-  0.1-    070517 J95  0.3-  0.1-
070515 G96  0.0   0.1+    070516 G96  0.1-  0.2-    070517 A17  0.2+  0.3-
070515 673  0.3+  0.1+    070516 G96  0.1-  0.1-    070517 J95  0.3+  0.5+
070515 G96  0.2+  0.2+    070516 G96  0.0   0.0     070517 J95  0.2-  0.4+
070515 673  0.1+  0.1+    070516 473  0.4+  0.3-    070517 595  0.0   0.1-
070515 G96  0.2+  0.0     070516 473  0.7+  0.8-    070517 A21  0.5+  0.9+
070515 673  0.2+  0.1-    070516 473  0.1+  0.6-    070517 595  0.4-  0.2-
070515 G96  0.5-  0.5-    070516 473  0.7+  0.4-    070517 A21  0.1+  0.3+
070515 673  0.1+  0.0     070516 473  0.4+  0.2+    070517 595  0.2-  0.3+
070515 G96  0.0   0.0     070516 473  0.1-  0.1+    070517 A21  0.4-  0.4+
070515 G96  0.0   0.1-    070516 473  0.4-  0.1+    070517 A21  0.4-  0.2-
070515 G96  0.2+  0.1-    070516 473  0.7-  0.1+    070517 A21  0.6-  0.4+
070515 A24  0.1+  0.4-    070517 473  0.1+  0.1-    070518 649  0.8-  0.7-
070515 A24  0.4-  0.3-    070517 B03  0.1-  0.1-    070518 649  0.2-  1.3-
070515 A24  0.2+  0.1+    070517 B03  0.1-  0.4-    070518 649  0.9+  1.3-
070515 A24  0.6+  0.6+    070517 B03  0.4-  0.3-    070518 649  0.4-  0.1-
070515 A24  0.2+  0.6+    070517 B03  0.2-  0.2-    070518 649  0.8-  0.2+
070515 A24  1.4-  0.7+    070517 B03  0.2-  0.2-    070518 850  0.4+  0.7+
070516 A24  0.7-  0.9-    070517 473  0.3+  0.3-    070518 850  0.9+  0.0
070516 A24  0.8+  0.5+    070517 850  0.5+  0.1-    070518 673  0.0   0.5+
070516 A24  0.4+  0.1-    070517 850  0.2-  0.4-    070518 673  0.2-  0.5+
070516 651  0.1+  0.2+    070517 850  0.0   0.2-    070518 673  0.5-  0.7-
070516 651  0.0   0.1+    070517 G96  0.1-  0.2-    070518 673  0.2-  0.1-
070516 651  0.5-  0.7+    070517 G96  0.1+  0.2-    070518 850  0.8+  0.4-
070516 673  0.2-  0.0     070517 G96  0.1+  0.2-    070518 474  0.1+  0.2-
070516 673  0.2-  0.0     070517 850  0.6-  0.2-    070518 474  0.1-  0.0
070516 734  0.1+  0.0     070517 474  0.0   0.6+    070518 474  0.0   0.4-
070516 673  0.1-  0.4+    070517 474  0.6-  2.0-

Ephemeris:
2007 JE40                a,e,i = 1.91, 0.37, 19                  q = 1.2073
Date    TT    R. A. (2000) Decl.     Delta      r     Elong.  Phase     V
2007 05 10    16 35.86   +04 51.7    0.348    1.319   148.5    23.6    19.6
2007 05 20    16 44.04   +16 02.3    0.329    1.285   141.3    29.5    19.6
2007 05 30    16 50.90   +26 18.8    0.329    1.257   131.6    37.1    19.8
2007 06 09    16 57.46   +34 27.4    0.343    1.234   122.6    43.8    20.0
2007 06 19    17 04.72   +40 07.0    0.363    1.218   115.7    48.7    20.3
2007 06 29    17 13.82   +43 31.5    0.385    1.209   111.0    51.7    20.4
2007 07 09    17 25.40   +45 04.7    0.406    1.208   108.3    53.1    20.6
2007 07 19    17 39.73   +45 03.3    0.425    1.213   107.5    53.0    20.7
2007 07 29    17 57.01   +43 39.6    0.441    1.227   108.2    51.9    20.8
2007 08 08    18 16.92   +41 01.6    0.456    1.247   110.0    49.8    20.8
2007 08 18    18 39.09   +37 14.8    0.473    1.273   112.8    47.2    20.9
2007 08 28    19 03.11   +32 30.9    0.494    1.304   115.9    44.2    20.9
2007 09 07    19 28.29   +27 08.3    0.524    1.341   118.7    41.2    21.0
2007 09 17    19 54.07   +21 31.6    0.565    1.381   120.6    38.8    21.2
2007 09 27    20 19.99   +16 09.1    0.620    1.424   120.9    37.2    21.4
2007 10 07    20 45.58   +11 23.4    0.691    1.469   119.6    36.3    21.7
2007 10 17    21 10.59   +07 27.7    0.777    1.517   117.0    35.9    22.0

Gareth V. Williams           (C) Copyright 2007 MPC           M.P.E.C. 2007-K19

Read MPEC 2007-K18 Read MPEC 2007-K20


Our Web policy. Index to the CBAT/MPC/ICQ pages.

